Year,Month,Day,Hour,Minute,Value (Times are PST for temperature in C)
2017,05,23,00,00,19.80
2017,05,23,00,01,19.80
2017,05,23,00,02,19.80
2017,05,23,00,03,19.80
2017,05,23,00,04,19.80
2017,05,23,00,05,19.80
2017,05,23,00,06,19.80
2017,05,23,00,07,19.80
2017,05,23,00,08,19.70
2017,05,23,00,09,19.70
2017,05,23,00,10,19.70
2017,05,23,00,11,19.70
2017,05,23,00,12,19.70
2017,05,23,00,13,19.70
2017,05,23,00,14,19.70
2017,05,23,00,15,19.70
2017,05,23,00,16,19.60
2017,05,23,00,17,19.60
2017,05,23,00,18,19.60
2017,05,23,00,19,19.60
2017,05,23,00,20,19.60
2017,05,23,00,21,19.60
2017,05,23,00,22,19.60
2017,05,23,00,23,19.50
2017,05,23,00,24,19.50
2017,05,23,00,25,19.50
2017,05,23,00,26,19.50
2017,05,23,00,27,19.40
2017,05,23,00,28,19.40
2017,05,23,00,29,19.40
2017,05,23,00,30,19.40
2017,05,23,00,31,19.40
2017,05,23,00,32,19.40
2017,05,23,00,33,19.40
2017,05,23,00,34,19.40
2017,05,23,00,35,19.40
2017,05,23,00,36,19.40
2017,05,23,00,37,19.40
2017,05,23,00,38,19.40
2017,05,23,00,39,19.40
2017,05,23,00,40,19.40
2017,05,23,00,41,19.30
2017,05,23,00,42,19.30
2017,05,23,00,43,19.30
2017,05,23,00,44,19.30
2017,05,23,00,45,19.30
2017,05,23,00,46,19.30
2017,05,23,00,47,19.30
2017,05,23,00,48,19.30
2017,05,23,00,49,19.30
2017,05,23,00,50,19.40
2017,05,23,00,51,19.40
2017,05,23,00,52,19.40
2017,05,23,00,53,19.40
2017,05,23,00,54,19.50
2017,05,23,00,55,19.50
2017,05,23,00,56,19.50
2017,05,23,00,57,19.60
2017,05,23,00,58,19.60
2017,05,23,00,59,19.60
2017,05,23,01,00,19.60
2017,05,23,01,01,19.60
2017,05,23,01,02,19.60
2017,05,23,01,03,19.60
2017,05,23,01,04,19.60
2017,05,23,01,05,19.60
2017,05,23,01,06,19.60
2017,05,23,01,07,19.60
2017,05,23,01,08,19.60
2017,05,23,01,09,19.60
2017,05,23,01,10,19.60
2017,05,23,01,11,19.60
2017,05,23,01,12,19.60
2017,05,23,01,13,19.60
2017,05,23,01,14,19.60
2017,05,23,01,15,19.60
2017,05,23,01,16,19.60
2017,05,23,01,17,19.50
2017,05,23,01,18,19.50
2017,05,23,01,19,19.50
2017,05,23,01,20,19.50
2017,05,23,01,21,19.50
2017,05,23,01,22,19.50
2017,05,23,01,23,19.50
2017,05,23,01,24,19.50
2017,05,23,01,25,19.50
2017,05,23,01,26,19.50
2017,05,23,01,27,19.50
2017,05,23,01,28,19.50
2017,05,23,01,29,19.50
2017,05,23,01,30,19.40
2017,05,23,01,31,19.40
2017,05,23,01,32,19.40
2017,05,23,01,33,19.40
2017,05,23,01,34,19.40
2017,05,23,01,35,19.40
2017,05,23,01,36,19.30
2017,05,23,01,37,19.30
2017,05,23,01,38,19.30
2017,05,23,01,39,19.30
2017,05,23,01,40,19.30
2017,05,23,01,41,19.30
2017,05,23,01,42,19.30
2017,05,23,01,43,19.30
2017,05,23,01,44,19.30
2017,05,23,01,45,19.30
2017,05,23,01,46,19.30
2017,05,23,01,47,19.30
2017,05,23,01,48,19.30
2017,05,23,01,49,19.30
2017,05,23,01,50,19.30
2017,05,23,01,51,19.30
2017,05,23,01,52,19.40
2017,05,23,01,53,19.40
2017,05,23,01,54,19.40
2017,05,23,01,55,19.40
2017,05,23,01,56,19.40
2017,05,23,01,57,19.40
2017,05,23,01,58,19.40
2017,05,23,01,59,19.40
2017,05,23,02,00,19.40
2017,05,23,02,01,19.40
2017,05,23,02,02,19.50
2017,05,23,02,03,19.50
2017,05,23,02,04,19.50
2017,05,23,02,05,19.60
2017,05,23,02,06,19.60
2017,05,23,02,07,19.60
2017,05,23,02,08,19.70
2017,05,23,02,09,19.70
2017,05,23,02,10,19.70
2017,05,23,02,11,19.70
2017,05,23,02,12,19.70
2017,05,23,02,13,19.60
2017,05,23,02,14,19.60
2017,05,23,02,15,19.60
2017,05,23,02,16,19.60
2017,05,23,02,17,19.60
2017,05,23,02,18,19.60
2017,05,23,02,19,19.60
2017,05,23,02,20,19.60
2017,05,23,02,21,19.60
2017,05,23,02,22,19.60
2017,05,23,02,23,19.60
2017,05,23,02,24,19.60
2017,05,23,02,25,19.60
2017,05,23,02,26,19.60
2017,05,23,02,27,19.60
2017,05,23,02,28,19.60
2017,05,23,02,29,19.70
2017,05,23,02,30,19.70
2017,05,23,02,31,19.70
2017,05,23,02,32,19.70
2017,05,23,02,33,19.70
2017,05,23,02,34,19.60
2017,05,23,02,35,19.60
2017,05,23,02,36,19.60
2017,05,23,02,37,19.60
2017,05,23,02,38,19.60
2017,05,23,02,39,19.50
2017,05,23,02,40,19.50
2017,05,23,02,41,19.50
2017,05,23,02,42,19.50
2017,05,23,02,43,19.40
2017,05,23,02,44,19.40
2017,05,23,02,45,19.40
2017,05,23,02,46,19.40
2017,05,23,02,47,19.40
2017,05,23,02,48,19.40
2017,05,23,02,49,19.40
2017,05,23,02,50,19.40
2017,05,23,02,51,19.40
2017,05,23,02,52,19.40
2017,05,23,02,53,19.40
2017,05,23,02,54,19.40
2017,05,23,02,55,19.30
2017,05,23,02,56,19.30
2017,05,23,02,57,19.20
2017,05,23,02,58,19.10
2017,05,23,02,59,19.00
2017,05,23,03,00,18.80
2017,05,23,03,01,18.70
2017,05,23,03,02,18.60
2017,05,23,03,03,18.40
2017,05,23,03,04,18.30
2017,05,23,03,05,18.20
2017,05,23,03,06,18.10
2017,05,23,03,07,18.00
2017,05,23,03,08,17.90
2017,05,23,03,09,17.80
2017,05,23,03,10,17.70
2017,05,23,03,11,17.70
2017,05,23,03,12,17.60
2017,05,23,03,13,17.60
2017,05,23,03,14,17.50
2017,05,23,03,15,17.50
2017,05,23,03,16,17.40
2017,05,23,03,17,17.40
2017,05,23,03,18,17.40
2017,05,23,03,19,17.30
2017,05,23,03,20,17.30
2017,05,23,03,21,17.30
2017,05,23,03,22,17.20
2017,05,23,03,23,17.10
2017,05,23,03,24,17.10
2017,05,23,03,25,17.00
2017,05,23,03,26,16.90
2017,05,23,03,27,16.80
2017,05,23,03,28,16.70
2017,05,23,03,29,16.70
2017,05,23,03,30,16.60
2017,05,23,03,31,16.60
2017,05,23,03,32,16.50
2017,05,23,03,33,16.40
2017,05,23,03,34,16.40
2017,05,23,03,35,16.40
2017,05,23,03,36,16.40
2017,05,23,03,37,16.30
2017,05,23,03,38,16.30
2017,05,23,03,39,16.30
2017,05,23,03,40,16.30
2017,05,23,03,41,16.30
2017,05,23,03,42,16.30
2017,05,23,03,43,16.40
2017,05,23,03,44,16.40
2017,05,23,03,45,16.40
2017,05,23,03,46,16.40
2017,05,23,03,47,16.50
2017,05,23,03,48,16.50
2017,05,23,03,49,16.50
2017,05,23,03,50,16.50
2017,05,23,03,51,16.60
2017,05,23,03,52,16.60
2017,05,23,03,53,16.60
2017,05,23,03,54,16.60
2017,05,23,03,55,16.70
2017,05,23,03,56,16.70
2017,05,23,03,57,16.70
2017,05,23,03,58,16.70
2017,05,23,03,59,16.70
2017,05,23,04,00,16.70
2017,05,23,04,01,16.70
2017,05,23,04,02,16.80
2017,05,23,04,03,16.80
2017,05,23,04,04,16.80
2017,05,23,04,05,16.80
2017,05,23,04,06,16.90
2017,05,23,04,07,16.90
2017,05,23,04,08,16.90
2017,05,23,04,09,17.00
2017,05,23,04,10,17.00
2017,05,23,04,11,17.10
2017,05,23,04,12,17.10
2017,05,23,04,13,17.10
2017,05,23,04,14,17.20
2017,05,23,04,15,17.20
2017,05,23,04,16,17.20
2017,05,23,04,17,17.30
2017,05,23,04,18,17.30
2017,05,23,04,19,17.30
2017,05,23,04,20,17.40
2017,05,23,04,21,17.40
2017,05,23,04,22,17.40
2017,05,23,04,23,17.40
2017,05,23,04,24,17.40
2017,05,23,04,25,17.40
2017,05,23,04,26,17.40
2017,05,23,04,27,17.40
2017,05,23,04,28,17.40
2017,05,23,04,29,17.40
2017,05,23,04,30,17.40
2017,05,23,04,31,17.30
2017,05,23,04,32,17.30
2017,05,23,04,33,17.20
2017,05,23,04,34,17.20
2017,05,23,04,35,17.10
2017,05,23,04,36,17.10
2017,05,23,04,37,17.00
2017,05,23,04,38,17.00
2017,05,23,04,39,16.90
2017,05,23,04,40,16.90
2017,05,23,04,41,16.80
2017,05,23,04,42,16.80
2017,05,23,04,43,16.70
2017,05,23,04,44,16.70
2017,05,23,04,45,16.60
2017,05,23,04,46,16.60
2017,05,23,04,47,16.50
2017,05,23,04,48,16.50
2017,05,23,04,49,16.50
2017,05,23,04,50,16.50
2017,05,23,04,51,16.50
2017,05,23,04,52,16.50
2017,05,23,04,53,16.50
2017,05,23,04,54,16.50
2017,05,23,04,55,16.50
2017,05,23,04,56,16.50
2017,05,23,04,57,16.50
2017,05,23,04,58,16.50
2017,05,23,04,59,16.50
2017,05,23,05,00,16.60
2017,05,23,05,01,16.60
2017,05,23,05,02,16.70
2017,05,23,05,03,16.70
2017,05,23,05,04,16.80
2017,05,23,05,05,16.80
2017,05,23,05,06,16.80
2017,05,23,05,07,16.90
2017,05,23,05,08,16.90
2017,05,23,05,09,16.90
2017,05,23,05,10,17.00
2017,05,23,05,11,17.00
2017,05,23,05,12,17.10
2017,05,23,05,13,17.10
2017,05,23,05,14,17.10
2017,05,23,05,15,17.10
2017,05,23,05,16,17.10
2017,05,23,05,17,17.10
2017,05,23,05,18,17.10
2017,05,23,05,19,17.10
2017,05,23,05,20,17.10
2017,05,23,05,21,17.10
2017,05,23,05,22,17.10
2017,05,23,05,23,17.10
2017,05,23,05,24,17.10
2017,05,23,05,25,17.10
2017,05,23,05,26,17.10
2017,05,23,05,27,17.00
2017,05,23,05,28,17.00
2017,05,23,05,29,17.00
2017,05,23,05,30,16.90
2017,05,23,05,31,16.90
2017,05,23,05,32,16.90
2017,05,23,05,33,16.90
2017,05,23,05,34,16.90
2017,05,23,05,35,16.90
2017,05,23,05,36,16.90
2017,05,23,05,37,16.90
2017,05,23,05,38,16.80
2017,05,23,05,39,16.80
2017,05,23,05,40,16.80
2017,05,23,05,41,16.80
2017,05,23,05,42,16.80
2017,05,23,05,43,16.80
2017,05,23,05,44,16.80
2017,05,23,05,45,16.80
2017,05,23,05,46,16.80
2017,05,23,05,47,16.70
2017,05,23,05,48,16.70
2017,05,23,05,49,16.70
2017,05,23,05,50,16.70
2017,05,23,05,51,16.70
2017,05,23,05,52,16.70
2017,05,23,05,53,16.70
2017,05,23,05,54,16.70
2017,05,23,05,55,16.70
2017,05,23,05,56,16.60
2017,05,23,05,57,16.60
2017,05,23,05,58,16.60
2017,05,23,05,59,16.50
2017,05,23,06,00,16.50
2017,05,23,06,01,16.40
2017,05,23,06,02,16.40
2017,05,23,06,03,16.40
2017,05,23,06,04,16.30
2017,05,23,06,05,16.30
2017,05,23,06,06,16.30
2017,05,23,06,07,16.30
2017,05,23,06,08,16.30
2017,05,23,06,09,16.30
2017,05,23,06,10,16.30
2017,05,23,06,11,16.30
2017,05,23,06,12,16.30
2017,05,23,06,13,16.30
2017,05,23,06,14,16.30
2017,05,23,06,15,16.30
2017,05,23,06,16,16.30
2017,05,23,06,17,16.30
2017,05,23,06,18,16.30
2017,05,23,06,19,16.30
2017,05,23,06,20,16.30
2017,05,23,06,21,16.30
2017,05,23,06,22,16.30
2017,05,23,06,23,16.30
2017,05,23,06,24,16.30
2017,05,23,06,25,16.30
2017,05,23,06,26,16.30
2017,05,23,06,27,16.30
2017,05,23,06,28,16.30
2017,05,23,06,29,16.30
2017,05,23,06,30,16.30
2017,05,23,06,31,16.30
2017,05,23,06,32,16.30
2017,05,23,06,33,16.30
2017,05,23,06,34,16.30
2017,05,23,06,35,16.30
2017,05,23,06,36,16.30
2017,05,23,06,37,16.30
2017,05,23,06,38,16.30
2017,05,23,06,39,16.30
2017,05,23,06,40,16.30
2017,05,23,06,41,16.30
2017,05,23,06,42,16.30
2017,05,23,06,43,16.30
2017,05,23,06,44,16.30
2017,05,23,06,45,16.40
2017,05,23,06,46,16.40
2017,05,23,06,47,16.40
2017,05,23,06,48,16.40
2017,05,23,06,49,16.40
2017,05,23,06,50,16.50
2017,05,23,06,51,16.50
2017,05,23,06,52,16.50
2017,05,23,06,53,16.60
2017,05,23,06,54,16.60
2017,05,23,06,55,16.60
2017,05,23,06,56,16.60
2017,05,23,06,57,16.60
2017,05,23,06,58,16.70
2017,05,23,06,59,16.70
2017,05,23,07,00,16.70
2017,05,23,07,01,16.70
2017,05,23,07,02,16.70
2017,05,23,07,03,16.70
2017,05,23,07,04,16.70
2017,05,23,07,05,16.70
2017,05,23,07,06,16.70
2017,05,23,07,07,16.70
2017,05,23,07,08,16.70
2017,05,23,07,09,16.70
2017,05,23,07,10,16.70
2017,05,23,07,11,16.70
2017,05,23,07,12,16.70
2017,05,23,07,13,16.70
2017,05,23,07,14,16.70
2017,05,23,07,15,16.70
2017,05,23,07,16,16.60
2017,05,23,07,17,16.60
2017,05,23,07,18,16.60
2017,05,23,07,19,16.60
2017,05,23,07,20,16.60
2017,05,23,07,21,16.50
2017,05,23,07,22,16.50
2017,05,23,07,23,16.50
2017,05,23,07,24,16.40
2017,05,23,07,25,16.40
2017,05,23,07,26,16.40
2017,05,23,07,27,16.30
2017,05,23,07,28,16.30
2017,05,23,07,29,16.20
2017,05,23,07,30,16.20
2017,05,23,07,31,16.10
2017,05,23,07,32,16.10
2017,05,23,07,33,16.00
2017,05,23,07,34,16.00
2017,05,23,07,35,15.90
2017,05,23,07,36,15.90
2017,05,23,07,37,15.90
2017,05,23,07,38,15.80
2017,05,23,07,39,15.80
2017,05,23,07,40,15.80
2017,05,23,07,41,15.80
2017,05,23,07,42,15.80
2017,05,23,07,43,15.90
2017,05,23,07,44,15.90
2017,05,23,07,45,15.90
2017,05,23,07,46,15.90
2017,05,23,07,47,16.00
2017,05,23,07,48,16.00
2017,05,23,07,49,16.10
2017,05,23,07,50,16.10
2017,05,23,07,51,16.20
2017,05,23,07,52,16.20
2017,05,23,07,53,16.30
2017,05,23,07,54,16.40
2017,05,23,07,55,16.40
2017,05,23,07,56,16.50
2017,05,23,07,57,16.60
2017,05,23,07,58,16.70
2017,05,23,07,59,16.70
2017,05,23,08,00,16.80
2017,05,23,08,01,16.80
2017,05,23,08,02,16.90
2017,05,23,08,03,17.00
2017,05,23,08,04,17.00
2017,05,23,08,05,17.10
2017,05,23,08,06,17.20
2017,05,23,08,07,17.20
2017,05,23,08,08,17.30
2017,05,23,08,09,17.30
2017,05,23,08,10,17.40
2017,05,23,08,11,17.40
2017,05,23,08,12,17.40
2017,05,23,08,13,17.60
2017,05,23,08,14,17.60
2017,05,23,08,15,17.70
2017,05,23,08,16,17.70
2017,05,23,08,17,17.80
2017,05,23,08,18,17.80
2017,05,23,08,19,17.90
2017,05,23,08,20,18.00
2017,05,23,08,21,18.00
2017,05,23,08,22,18.10
2017,05,23,08,23,18.20
2017,05,23,08,24,18.30
2017,05,23,08,25,18.30
2017,05,23,08,26,18.30
2017,05,23,08,27,18.40
2017,05,23,08,28,18.40
2017,05,23,08,29,18.30
2017,05,23,08,30,18.30
2017,05,23,08,31,18.30
2017,05,23,08,32,18.20
2017,05,23,08,33,18.20
2017,05,23,08,34,18.20
2017,05,23,08,35,18.20
2017,05,23,08,36,18.10
2017,05,23,08,37,18.10
2017,05,23,08,38,18.10
2017,05,23,08,39,18.10
2017,05,23,08,40,18.10
2017,05,23,08,41,18.10
2017,05,23,08,42,18.10
2017,05,23,08,43,18.10
2017,05,23,08,44,18.10
2017,05,23,08,45,18.00
2017,05,23,08,46,18.00
2017,05,23,08,47,18.00
2017,05,23,08,48,18.00
2017,05,23,08,49,18.00
2017,05,23,08,50,18.10
2017,05,23,08,51,18.10
2017,05,23,08,52,18.10
2017,05,23,08,53,18.20
2017,05,23,08,54,18.30
2017,05,23,08,55,18.30
2017,05,23,08,56,18.30
2017,05,23,08,57,18.30
2017,05,23,08,58,18.40
2017,05,23,08,59,18.40
2017,05,23,09,00,18.40
2017,05,23,09,01,18.40
2017,05,23,09,02,18.40
2017,05,23,09,03,18.30
2017,05,23,09,04,18.30
2017,05,23,09,05,18.30
2017,05,23,09,06,18.20
2017,05,23,09,07,18.20
2017,05,23,09,08,18.20
2017,05,23,09,09,18.20
2017,05,23,09,10,18.20
2017,05,23,09,11,18.20
2017,05,23,09,12,18.30
2017,05,23,09,13,18.30
2017,05,23,09,14,18.30
2017,05,23,09,15,18.30
2017,05,23,09,16,18.30
2017,05,23,09,17,18.30
2017,05,23,09,18,18.30
2017,05,23,09,19,18.40
2017,05,23,09,20,18.40
2017,05,23,09,21,18.40
2017,05,23,09,22,18.40
2017,05,23,09,23,18.40
2017,05,23,09,24,18.50
2017,05,23,09,25,18.40
2017,05,23,09,26,18.40
2017,05,23,09,27,18.40
2017,05,23,09,28,18.30
2017,05,23,09,29,18.20
2017,05,23,09,30,18.20
2017,05,23,09,31,18.10
2017,05,23,09,32,18.10
2017,05,23,09,33,18.10
2017,05,23,09,34,18.10
2017,05,23,09,35,18.10
2017,05,23,09,36,18.10
2017,05,23,09,37,18.20
2017,05,23,09,38,18.20
2017,05,23,09,39,18.30
2017,05,23,09,40,18.30
2017,05,23,09,41,18.30
2017,05,23,09,42,18.40
2017,05,23,09,43,18.40
2017,05,23,09,44,18.50
2017,05,23,09,45,18.50
2017,05,23,09,46,18.60
2017,05,23,09,47,18.60
2017,05,23,09,48,18.70
2017,05,23,09,49,18.70
2017,05,23,09,50,18.70
2017,05,23,09,51,18.80
2017,05,23,09,52,18.80
2017,05,23,09,53,18.80
2017,05,23,09,54,18.90
2017,05,23,09,55,19.00
2017,05,23,09,56,19.10
2017,05,23,09,57,19.20
2017,05,23,09,58,19.30
2017,05,23,09,59,19.30
2017,05,23,10,00,19.40
2017,05,23,10,01,19.50
2017,05,23,10,02,19.60
2017,05,23,10,03,19.60
2017,05,23,10,04,19.60
2017,05,23,10,05,19.60
2017,05,23,10,06,19.50
2017,05,23,10,07,19.50
2017,05,23,10,08,19.60
2017,05,23,10,09,19.60
2017,05,23,10,10,19.60
2017,05,23,10,11,19.60
2017,05,23,10,12,19.60
2017,05,23,10,13,19.60
2017,05,23,10,14,19.70
2017,05,23,10,15,19.70
2017,05,23,10,16,19.70
2017,05,23,10,17,19.80
2017,05,23,10,18,19.90
2017,05,23,10,19,20.00
2017,05,23,10,20,20.00
2017,05,23,10,21,20.10
2017,05,23,10,22,20.10
2017,05,23,10,23,20.20
2017,05,23,10,24,20.20
2017,05,23,10,25,20.30
2017,05,23,10,26,20.40
2017,05,23,10,27,20.40
2017,05,23,10,28,20.50
2017,05,23,10,29,20.50
2017,05,23,10,30,20.50
2017,05,23,10,31,20.50
2017,05,23,10,32,20.60
2017,05,23,10,33,20.60
2017,05,23,10,34,20.60
2017,05,23,10,35,20.70
2017,05,23,10,36,20.70
2017,05,23,10,37,20.80
2017,05,23,10,38,20.80
2017,05,23,10,39,20.80
2017,05,23,10,40,20.80
2017,05,23,10,41,20.90
2017,05,23,10,42,20.90
2017,05,23,10,43,21.00
2017,05,23,10,44,21.10
2017,05,23,10,45,21.20
2017,05,23,10,46,21.20
2017,05,23,10,47,21.30
2017,05,23,10,48,21.40
2017,05,23,10,49,21.50
2017,05,23,10,50,21.70
2017,05,23,10,51,21.70
2017,05,23,10,52,21.80
2017,05,23,10,53,21.90
2017,05,23,10,54,22.00
2017,05,23,10,55,22.10
2017,05,23,10,56,22.10
2017,05,23,10,57,22.10
2017,05,23,10,58,22.10
2017,05,23,10,59,22.10
2017,05,23,11,00,22.00
2017,05,23,11,01,22.10
2017,05,23,11,02,22.10
2017,05,23,11,03,22.20
2017,05,23,11,04,22.20
2017,05,23,11,05,22.30
2017,05,23,11,06,22.40
2017,05,23,11,07,22.40
2017,05,23,11,08,22.50
2017,05,23,11,09,22.50
2017,05,23,11,10,22.50
2017,05,23,11,11,22.60
2017,05,23,11,12,22.60
2017,05,23,11,13,22.60
2017,05,23,11,14,22.60
2017,05,23,11,15,22.70
2017,05,23,11,16,22.70
2017,05,23,11,17,22.80
2017,05,23,11,18,22.80
2017,05,23,11,19,22.80
2017,05,23,11,20,22.80
2017,05,23,11,21,22.80
2017,05,23,11,22,22.80
2017,05,23,11,23,22.90
2017,05,23,11,24,23.00
2017,05,23,11,25,23.00
2017,05,23,11,26,23.10
2017,05,23,11,27,23.10
2017,05,23,11,28,23.10
2017,05,23,11,29,23.20
2017,05,23,11,30,23.20
2017,05,23,11,31,23.20
2017,05,23,11,32,23.20
2017,05,23,11,33,23.20
2017,05,23,11,34,23.30
2017,05,23,11,35,23.30
2017,05,23,11,36,23.30
2017,05,23,11,37,23.30
2017,05,23,11,38,23.30
2017,05,23,11,39,23.30
2017,05,23,11,40,23.30
2017,05,23,11,41,23.30
2017,05,23,11,42,23.30
2017,05,23,11,43,23.30
2017,05,23,11,44,23.20
2017,05,23,11,45,23.20
2017,05,23,11,46,23.20
2017,05,23,11,47,23.10
2017,05,23,11,48,23.00
2017,05,23,11,49,23.00
2017,05,23,11,50,22.90
2017,05,23,11,51,22.90
2017,05,23,11,52,22.90
2017,05,23,11,53,22.80
2017,05,23,11,54,22.70
2017,05,23,11,55,22.60
2017,05,23,11,56,22.60
2017,05,23,11,57,22.60
2017,05,23,11,58,22.60
2017,05,23,11,59,22.60
2017,05,23,12,00,22.70
2017,05,23,12,01,22.70
2017,05,23,12,02,22.80
2017,05,23,12,03,22.80
2017,05,23,12,04,22.80
2017,05,23,12,05,22.80
2017,05,23,12,06,22.80
2017,05,23,12,07,22.80
2017,05,23,12,08,22.80
2017,05,23,12,09,22.80
2017,05,23,12,10,22.80
2017,05,23,12,11,22.80
2017,05,23,12,12,22.80
2017,05,23,12,13,22.90
2017,05,23,12,14,22.90
2017,05,23,12,15,22.90
2017,05,23,12,16,23.00
2017,05,23,12,17,23.00
2017,05,23,12,18,23.00
2017,05,23,12,19,23.10
2017,05,23,12,20,23.10
2017,05,23,12,21,23.20
2017,05,23,12,22,23.20
2017,05,23,12,23,23.30
2017,05,23,12,24,23.40
2017,05,23,12,25,23.50
2017,05,23,12,26,23.50
2017,05,23,12,27,23.60
2017,05,23,12,28,23.70
2017,05,23,12,29,23.70
2017,05,23,12,30,23.80
2017,05,23,12,31,23.90
2017,05,23,12,32,23.90
2017,05,23,12,33,23.90
2017,05,23,12,34,23.90
2017,05,23,12,35,23.90
2017,05,23,12,36,23.80
2017,05,23,12,37,23.70
2017,05,23,12,38,23.70
2017,05,23,12,39,23.70
2017,05,23,12,40,23.70
2017,05,23,12,41,23.70
2017,05,23,12,42,23.70
2017,05,23,12,43,23.70
2017,05,23,12,44,23.70
2017,05,23,12,45,23.60
2017,05,23,12,46,23.50
2017,05,23,12,47,23.50
2017,05,23,12,48,23.40
2017,05,23,12,49,23.40
2017,05,23,12,50,23.50
2017,05,23,12,51,23.50
2017,05,23,12,52,23.50
2017,05,23,12,53,23.50
2017,05,23,12,54,23.50
2017,05,23,12,55,23.40
2017,05,23,12,56,23.50
2017,05,23,12,57,23.50
2017,05,23,12,58,23.50
2017,05,23,12,59,23.60
2017,05,23,13,00,23.60
2017,05,23,13,01,23.70
2017,05,23,13,02,23.70
2017,05,23,13,03,23.70
2017,05,23,13,04,23.70
2017,05,23,13,05,23.80
2017,05,23,13,06,23.80
2017,05,23,13,07,23.70
2017,05,23,13,08,23.70
2017,05,23,13,09,23.70
2017,05,23,13,10,23.60
2017,05,23,13,11,23.60
2017,05,23,13,12,23.70
2017,05,23,13,13,23.70
2017,05,23,13,14,23.60
2017,05,23,13,15,23.50
2017,05,23,13,16,23.60
2017,05,23,13,17,23.50
2017,05,23,13,18,23.40
2017,05,23,13,19,23.20
2017,05,23,13,20,23.10
2017,05,23,13,21,23.00
2017,05,23,13,22,22.90
2017,05,23,13,23,22.80
2017,05,23,13,24,22.70
2017,05,23,13,25,22.60
2017,05,23,13,26,22.50
2017,05,23,13,27,22.50
2017,05,23,13,28,22.40
2017,05,23,13,29,22.40
2017,05,23,13,30,22.40
2017,05,23,13,31,22.30
2017,05,23,13,32,22.30
2017,05,23,13,33,22.10
2017,05,23,13,34,22.10
2017,05,23,13,35,22.00
2017,05,23,13,36,22.00
2017,05,23,13,37,22.10
2017,05,23,13,38,22.20
2017,05,23,13,39,22.20
2017,05,23,13,40,22.20
2017,05,23,13,41,22.20
2017,05,23,13,42,22.20
2017,05,23,13,43,22.30
2017,05,23,13,44,22.30
2017,05,23,13,45,22.30
2017,05,23,13,46,22.30
2017,05,23,13,47,22.30
2017,05,23,13,48,22.30
2017,05,23,13,49,22.40
2017,05,23,13,50,22.40
2017,05,23,13,51,22.50
2017,05,23,13,52,22.50
2017,05,23,13,53,22.50
2017,05,23,13,54,22.60
2017,05,23,13,55,22.50
2017,05,23,13,56,22.40
2017,05,23,13,57,22.40
2017,05,23,13,58,22.30
2017,05,23,13,59,22.30
2017,05,23,14,00,22.20
2017,05,23,14,01,22.30
2017,05,23,14,02,22.40
2017,05,23,14,03,22.50
2017,05,23,14,04,22.60
2017,05,23,14,05,22.50
2017,05,23,14,06,22.50
2017,05,23,14,07,22.60
2017,05,23,14,08,22.60
2017,05,23,14,09,22.50
2017,05,23,14,10,22.40
2017,05,23,14,11,22.20
2017,05,23,14,12,22.10
2017,05,23,14,13,22.10
2017,05,23,14,14,22.10
2017,05,23,14,15,22.10
2017,05,23,14,16,22.10
2017,05,23,14,17,22.10
2017,05,23,14,18,22.20
2017,05,23,14,19,22.20
2017,05,23,14,20,22.10
2017,05,23,14,21,22.10
2017,05,23,14,22,22.10
2017,05,23,14,23,22.00
2017,05,23,14,24,22.10
2017,05,23,14,25,22.00
2017,05,23,14,26,21.90
2017,05,23,14,27,21.90
2017,05,23,14,28,21.80
2017,05,23,14,29,21.80
2017,05,23,14,30,21.80
2017,05,23,14,31,21.70
2017,05,23,14,32,21.80
2017,05,23,14,33,21.80
2017,05,23,14,34,21.80
2017,05,23,14,35,21.80
2017,05,23,14,36,21.90
2017,05,23,14,37,22.00
2017,05,23,14,38,22.00
2017,05,23,14,39,22.00
2017,05,23,14,40,22.00
2017,05,23,14,41,22.00
2017,05,23,14,42,22.00
2017,05,23,14,43,21.90
2017,05,23,14,44,21.80
2017,05,23,14,45,21.80
2017,05,23,14,46,21.80
2017,05,23,14,47,21.70
2017,05,23,14,48,21.70
2017,05,23,14,49,21.70
2017,05,23,14,50,21.70
2017,05,23,14,51,21.70
2017,05,23,14,52,21.70
2017,05,23,14,53,21.80
2017,05,23,14,54,21.80
2017,05,23,14,55,21.90
2017,05,23,14,56,22.00
2017,05,23,14,57,22.00
2017,05,23,14,58,21.90
2017,05,23,14,59,21.80
2017,05,23,15,00,21.80
2017,05,23,15,01,21.80
2017,05,23,15,02,21.80
2017,05,23,15,03,21.50
2017,05,23,15,04,21.30
2017,05,23,15,05,21.30
2017,05,23,15,06,21.30
2017,05,23,15,07,21.40
2017,05,23,15,08,21.30
2017,05,23,15,09,21.30
2017,05,23,15,10,21.20
2017,05,23,15,11,21.10
2017,05,23,15,12,20.90
2017,05,23,15,13,20.80
2017,05,23,15,14,20.70
2017,05,23,15,15,20.70
2017,05,23,15,16,20.80
2017,05,23,15,17,20.80
2017,05,23,15,18,20.80
2017,05,23,15,19,20.70
2017,05,23,15,20,20.70
2017,05,23,15,21,20.80
2017,05,23,15,22,20.80
2017,05,23,15,23,20.70
2017,05,23,15,24,20.80
2017,05,23,15,25,20.80
2017,05,23,15,26,20.90
2017,05,23,15,27,20.80
2017,05,23,15,28,20.70
2017,05,23,15,29,20.50
2017,05,23,15,30,20.40
2017,05,23,15,31,20.20
2017,05,23,15,32,19.90
2017,05,23,15,33,19.70
2017,05,23,15,34,19.60
2017,05,23,15,35,19.50
2017,05,23,15,36,19.50
2017,05,23,15,37,19.60
2017,05,23,15,38,19.70
2017,05,23,15,39,19.80
2017,05,23,15,40,19.80
2017,05,23,15,41,19.70
2017,05,23,15,42,19.70
2017,05,23,15,43,19.60
2017,05,23,15,44,19.50
2017,05,23,15,45,19.50
2017,05,23,15,46,19.40
2017,05,23,15,47,19.30
2017,05,23,15,48,19.30
2017,05,23,15,49,19.30
2017,05,23,15,50,19.30
2017,05,23,15,51,19.30
2017,05,23,15,52,19.30
2017,05,23,15,53,19.40
2017,05,23,15,54,19.20
2017,05,23,15,55,19.00
2017,05,23,15,56,18.80
2017,05,23,15,57,18.90
2017,05,23,15,58,19.00
2017,05,23,15,59,19.10
2017,05,23,16,00,19.20
2017,05,23,16,01,19.20
2017,05,23,16,02,19.00
2017,05,23,16,03,18.80
2017,05,23,16,04,18.70
2017,05,23,16,05,18.70
2017,05,23,16,06,18.70
2017,05,23,16,07,18.80
2017,05,23,16,08,18.80
2017,05,23,16,09,18.80
2017,05,23,16,10,18.70
2017,05,23,16,11,18.60
2017,05,23,16,12,18.60
2017,05,23,16,13,18.60
2017,05,23,16,14,18.60
2017,05,23,16,15,18.60
2017,05,23,16,16,18.50
2017,05,23,16,17,18.30
2017,05,23,16,18,18.30
2017,05,23,16,19,18.30
2017,05,23,16,20,18.20
2017,05,23,16,21,18.20
2017,05,23,16,22,18.20
2017,05,23,16,23,18.20
2017,05,23,16,24,18.20
2017,05,23,16,25,18.20
2017,05,23,16,26,18.20
2017,05,23,16,27,18.20
2017,05,23,16,28,18.20
2017,05,23,16,29,18.20
2017,05,23,16,30,18.40
2017,05,23,16,31,18.30
2017,05,23,16,32,18.30
2017,05,23,16,33,18.20
2017,05,23,16,34,18.20
2017,05,23,16,35,18.10
2017,05,23,16,36,18.10
2017,05,23,16,37,18.10
2017,05,23,16,38,18.10
2017,05,23,16,39,18.20
2017,05,23,16,40,18.20
2017,05,23,16,41,18.30
2017,05,23,16,42,18.30
2017,05,23,16,43,18.20
2017,05,23,16,44,18.20
2017,05,23,16,45,18.30
2017,05,23,16,46,18.40
2017,05,23,16,47,18.30
2017,05,23,16,48,18.30
2017,05,23,16,49,18.30
2017,05,23,16,50,18.30
2017,05,23,16,51,18.30
2017,05,23,16,52,18.30
2017,05,23,16,53,18.30
2017,05,23,16,54,18.20
2017,05,23,16,55,18.10
2017,05,23,16,56,18.00
2017,05,23,16,57,17.80
2017,05,23,16,58,17.70
2017,05,23,16,59,17.70
2017,05,23,17,00,17.70
2017,05,23,17,01,17.60
2017,05,23,17,02,17.60
2017,05,23,17,03,17.60
2017,05,23,17,04,17.60
2017,05,23,17,05,17.60
2017,05,23,17,06,17.60
2017,05,23,17,07,17.50
2017,05,23,17,08,17.40
2017,05,23,17,09,17.20
2017,05,23,17,10,17.10
2017,05,23,17,11,17.10
2017,05,23,17,12,16.90
2017,05,23,17,13,16.90
2017,05,23,17,14,16.80
2017,05,23,17,15,16.70
2017,05,23,17,16,16.60
2017,05,23,17,17,16.60
2017,05,23,17,18,16.50
2017,05,23,17,19,16.40